La Palma > ESTACION METEOROLÓGICA Finca Nogales - Puntallana

DATOS ACTUALES Online

Ultima actulizacion 1 minutos

17.7 ºC

Temperatura

71

Humedad (%)

1016.0

Presión (mb)

0

Precipitación (mm)

3.06 NW

Viento (Km/h)

DATOS DIARIOS

Temperatura últimas 24 horas (ºC)

Humedad últimas 24 horas (%)

Presión atmosférica últimas 24 horas (mb)

Precipitaciones últimas 23 horas (mm)

Viento últimas 24 horas (Km/h)

Hora Temperatura (°C) ºC Precipitación (mm) mm Presión (mb) mb Humedad (%) % Viento (Km/h) km/h
29 - 00:00 17.6 0 1017 72 0 NW
29 - 01:00 18.3 0 1016 76 1.62 NW
29 - 02:00 17.4 0 1016 77 0 W
29 - 03:00 17.7 0 1016 77 1.62 SW
29 - 04:00 17.6 0 1015 76 6.3 W
29 - 05:00 16.6 0 1015 76 3.06 SW
29 - 06:00 17.3 0 1016 73 0 W
29 - 07:00 17.8 0 1016 71 0 SW
29 - 08:00 18.3 0 1016 72 0 SE
29 - 09:00 19.3 0 1017 72 0 NW
29 - 10:00 20.6 0 1017 68 0 NE
29 - 11:00 20.9 0 1017 69 0 NE
29 - 12:00 21.6 0 1016 65 1.62 NE
29 - 13:00 20.6 0 1016 70 3.06 N
29 - 14:00 20.4 0 1016 70 0 NW
29 - 15:00 20 0 1016 71 15.66 NW
29 - 16:00 20.1 0 1015 72 17.28 N
29 - 17:00 20.3 0 1015 69 0 NE
29 - 18:00 20.4 0 1015 70 0 NE
29 - 19:00 19.9 0 1015 74 0 N
29 - 20:00 19 0 1015 75 0 N
29 - 21:00 18.2 0 1016 78 0 W
29 - 22:00 18.2 0 1016 78 0 W
29 - 23:00 17.5 0 1016 73 1.62 NW
30 - 00:00 17.7 0 1016 71 3.06 NW
Apalmet utiliza cookies propias y de terceros para mejorar la usabilidad y la experiencia web. Política de cookies.